Regional Weather Roundup
Issued by NWS

Home | Current Version | Previous Version | Text Only | Print | Product List | Glossary Off
Versions: 1 2 3 4 5 6 7 8 9 10 11 12 13 14 15 16 17 18 19 20 21 22 23 24 25 26 27 28 29 30 31 32 33 34 35 36 37 38 39 40 41 42 43 44 45 46 47 48 49 50

000
ASUS44 KMEG 281000
RWRTN
TENNESSEE HOURLY STATE WEATHER ROUNDUP
NATIONAL WEATHER SERVICE MEMPHIS TN
500 AM CDT SUN MAY 28 2017

TNZ002-004-019-021-049-052-054-088>092-281100-
WEST TENNESSEE

CITY           SKY/WX    TMP DP  RH WIND       PRES   REMARKS
MEMPHIS INTL   TSTM      65  63  93 S12       29.99R
NWS MEMPHIS      N/A     64 N/A N/A MISG        N/A
JACKSON        LGT RAIN  64  64 100 S14       29.89F
$$

TNZ008-025-027-028-033-062-065-066-281100-
NORTH MIDDLE TENNESSEE

CITY           SKY/WX    TMP DP  RH WIND       PRES   REMARKS
NASHVILLE      CLOUDY    65  62  90 S6        29.85R
CLARKSVILLE    CLOUDY    64  60  87 N7        29.79F
SMYRNA         MOCLDY    64  62  93 NW6       29.87R
CROSSVILLE     CLOUDY    60  59  96 VRB7      29.87F
$$

TNZ061-075-076-078-094-096-097-281100-
SOUTH MIDDLE TENNESSEE

CITY           SKY/WX    TMP DP  RH WIND       PRES   REMARKS
TULLAHOMA      CLEAR     63  63 100 CALM      29.87F
WINCHESTER     CLEAR     63  61  94 CALM        N/A
$$

TNZ017-018-042-046-047-281100-
NORTHEAST TENNESSEE

CITY           SKY/WX    TMP DP  RH WIND       PRES   REMARKS
TRI CITIES     MOCLDY    62  61  96 S3        29.92R FOG
$$

TNZ012-013-036-069-073-074-281100-
CENTRAL EAST TENNESSEE

CITY           SKY/WX    TMP DP  RH WIND       PRES   REMARKS
KNOXVILLE      LGT RAIN  62  60  93 S9        29.91S
OAK RIDGE      CLOUDY    64  61  90 S7        29.90F
GATLINBURG     PTCLDY    61  59  94 CALM      29.91S
$$

TNZ083-085-099-281100-
SOUTHEAST TENNESSEE

CITY           SKY/WX    TMP DP  RH WIND       PRES   REMARKS
CHATTANOOGA    TSTM      65  62  90 E7        29.88F FOG
$$

SKY/WX REPORTED AS FAIR MEANS FEW OR NO CLOUDS BELOW
12 THOUSAND FEET.





USA.gov is the U.S. government's official web portal to all federal, state and local government web resources and services.